Location: Godiavel Galaoual
(15.2485°N, 12.6604°W)
Time: 07:23:33
(UTC+00:00)

Altair - Visible Passes

Search period start: 15 June 2021 00:00
Search period end: 25 June 2021 00:00
Orbit: 1501 x 1683 km, 47.2° (Epoch: 14 June)

Date Brightness Start Highest point End Pass type
(mag) Time Alt. Az. Time Alt. Az. Time Alt. Az.
15 Jun 9.1 00:13:40 10° WNW 00:17:14 24° WNW 00:17:14 24° WNW visible
15 Jun 9.5 19:43:03 10° N 19:45:44 11° NNE 19:48:26 10° NE visible
15 Jun 8.2 21:43:43 10° NNW 21:53:07 42° NE 21:55:15 38° ENE visible
15 Jun 8.8 23:48:18 10° NW 23:53:16 31° WNW 23:53:16 31° WNW visible
16 Jun 8.4 21:18:39 10° NNW 21:27:49 38° NE 21:31:20 30° ENE visible
16 Jun 8.4 23:22:56 10° NW 23:29:21 41° WNW 23:29:21 41° WNW visible
17 Jun 8.5 20:53:36 10° NNW 21:02:30 34° NE 21:07:28 23° E visible
17 Jun 8.0 22:57:37 10° NW 23:05:29 54° W 23:05:29 54° W visible
18 Jun 8.6 20:28:35 10° NNW 20:37:10 31° NE 20:43:38 17° E visible
18 Jun 7.7 22:32:20 10° NW 22:41:40 68° WSW 22:41:40 68° WSW visible
19 Jun 8.7 20:03:33 10° NNW 20:11:50 28° NE 20:19:52 11° E visible
19 Jun 7.5 22:07:05 10° NW 22:17:13 78° SW 22:17:54 75° SSW visible
20 Jun 8.9 19:38:34 10° NNW 19:46:29 26° NE 19:54:27 10° E visible
20 Jun 7.5 21:41:51 10° NW 21:52:01 85° SW 21:54:11 62° SSE visible
20 Jun 9.5 23:50:26 10° W 23:52:13 13° W 23:52:13 13° W visible
21 Jun 7.5 21:16:39 10° NW 21:26:48 87° NE 21:30:31 46° SE visible
21 Jun 9.3 23:24:28 10° W 23:28:33 18° WSW 23:28:33 18° WSW visible
22 Jun 7.6 20:51:29 10° NW 21:01:35 80° NE 21:06:55 34° SE visible
22 Jun 9.0 22:58:39 10° W 23:04:57 22° WSW 23:04:57 22° WSW visible
23 Jun 7.7 20:26:19 10° NW 20:36:21 73° NE 20:43:21 23° SE visible
23 Jun 8.8 22:32:57 10° WNW 22:40:48 26° SW 22:41:23 26° SW visible
24 Jun 7.8 20:01:10 10° NW 20:11:07 66° NE 20:19:50 15° SE visible
24 Jun 8.7 22:07:20 10° WNW 22:15:37 29° SW 22:17:53 27° SSW visible
